[[{"header":{"parameterUnit":"m.s-1","parameterCategory":1,"la1":30.2992,"la2":30.254,"lo1":-89.0895,"lo2":-89.0443,"dy":0.0025,"dx":0.0025,"nx":19,"ny":19,"refTime":"2026-04-03T21:00:00:Z","depth":0,"parameterNumber":2,"parameterNumberName":"U-component_of_WINDS"},"data":[0,0,0,-4.5386,-4.539,-4.5558,-4.5558,-4.5778,-4.578,0,0,0,0,0,0,0,0,0,0,0,-4.5339,-4.534,-4.5386,-4.539,-4.5558,-4.5559,-4.5778,-4.578,0,0,0,0,0,0,0,0,0,0,0,-4.5338,-4.534,-4.5342,-4.5391,-4.5558,-4.5559,-4.5778,-4.5649,0,0,0,0,0,0,0,0,0,0,-4.5485,-4.5444,-4.5339,-4.5342,-4.5392,-4.5557,-4.5559,-4.5643,-4.5657,-4.5704,0,-4.5747,0,-4.5767,-4.5795,-4.5796,0,0,0,-4.5388,-4.5432,-4.5475,-4.5342,-4.5393,-4.5557,-4.5482,-4.5651,-4.5667,-4.5723,-4.575,-4.5758,-4.5771,-4.5797,-4.5798,-4.6075,-4.6076,0,0,-4.5379,-4.537,-4.5464,-4.5485,-4.5459,-4.5476,-4.5487,-4.566,-4.5689,-4.575,-4.5763,-4.5774,-4.5798,-4.58,-4.6074,-4.6076,0,0,0,-4.5353,-4.5364,-4.5403,-4.5477,-4.5506,-4.5481,-4.5493,-4.5681,-4.5694,-4.5765,-4.5777,-4.58,-4.5802,-4.6072,-4.6074,-4.6132,0,0,0,-4.5348,-4.5349,-4.5399,-4.5395,-4.5503,-4.5596,-4.551,-4.5682,-4.5702,-4.5776,-4.58,-4.5805,-4.6071,-4.6073,-4.6128,-4.6161,0,0,0,-4.5327,-4.5346,-4.5372,-4.5394,-4.5466,-4.5593,-4.5616,-4.5687,-4.571,-4.5796,-4.5805,-4.607,-4.6073,-4.6123,-4.6154,-4.623,0,0,0,-4.5302,-4.5422,-4.5372,-4.5511,-4.5465,-4.5628,-4.5615,-4.5738,-4.582,-4.5801,-4.6071,-4.6074,-4.6122,-4.6149,-4.6225,-4.629,-4.6317,0,0,-4.5448,-4.5439,-4.5521,-4.5482,-4.5652,-4.5603,-4.5783,-4.5866,-4.5883,-4.601,-4.6017,-4.6129,-4.6153,-4.6229,-4.6476,-4.6497,0,0,0,-4.5564,-4.5623,-4.567,-4.5747,-4.5814,-4.5873,-4.593,-4.5962,-4.607,-4.5946,-4.6179,-4.6194,-4.6238,-4.6269,-4.6288,-4.6326,-4.6089,-4.6089,-4.6089,-4.5756,-4.5771,-4.5908,-4.5944,-4.6019,-4.6077,-4.614,-4.6192,-4.6185,-4.624,-4.6277,-4.6425,-4.6462,-4.6475,-4.6515,-4.6315,-4.6315,-4.6316,-4.6316,-4.5969,-4.6054,-4.6044,-4.6172,-4.6188,-4.6296,-4.6358,-4.635,-4.6453,-4.6399,-4.6439,-4.6375,-4.6498,-4.6534,-4.632,-4.632,-4.6319,-4.6319,-4.6318,-4.6094,-4.6137,-4.6174,-4.6287,-4.6373,-4.6407,-4.6506,-4.6518,-4.653,-4.657,-4.6609,-4.6608,-4.6606,-4.6588,-4.6589,-4.6589,-4.659,-4.659,-4.6591,-4.6208,-4.6247,-4.6329,-4.6411,-4.6462,-4.6532,-4.6593,-4.6644,-4.6704,-4.6705,-4.6705,-4.6692,-4.6509,-4.646,-4.6598,-4.6597,-4.6596,-4.6595,-4.6595,-4.6413,-4.6369,-4.6495,-4.6547,-4.6644,-4.6729,-4.6744,-4.6847,-4.6892,-4.694,-4.6921,-4.6784,-4.6775,-4.6761,-4.6721,-4.6918,-4.6918,-4.6918,-4.6918,-4.6516,-4.6514,-4.6645,-4.6727,-4.6809,-4.6835,-4.6978,-4.7028,-4.7073,-4.7101,-4.7076,-4.7025,-4.701,-4.701,-4.699,-4.6953,-4.7205,-4.7205,-4.7205,-4.6642,-4.6648,-4.6766,-4.6809,-4.6887,-4.6954,-4.7088,-4.7183,-4.7225,-4.7217,-4.7124,-4.7111,-4.703,-4.7003,-4.6989,-4.6958,-4.689,0,0]},{"header":{"parameterUnit":"m.s-1","parameterCategory":1,"la1":30.2992,"la2":30.254,"lo1":-89.0895,"lo2":-89.0443,"dy":0.0025,"dx":0.0025,"nx":19,"ny":19,"refTime":"2026-04-03T21:00:00:Z","depth":0,"parameterNumber":3,"parameterNumberName":"V-component_of_WINDS"},"data":[0,0,0,2.778,2.7781,2.7852,2.7852,2.7928,2.7929,0,0,0,0,0,0,0,0,0,0,0,2.7751,2.7752,2.778,2.7781,2.7852,2.7852,2.7928,2.7929,0,0,0,0,0,0,0,0,0,0,0,2.7751,2.7752,2.7752,2.7781,2.7852,2.7852,2.7928,2.7879,0,0,0,0,0,0,0,0,0,0,2.7813,2.778,2.7751,2.7752,2.7782,2.7852,2.7852,2.7877,2.7882,2.7891,0,2.7897,0,2.7914,2.7933,2.7933,0,0,0,2.7786,2.7776,2.7802,2.7752,2.7782,2.7852,2.7821,2.788,2.7886,2.7897,2.7898,2.7902,2.7916,2.7934,2.7934,2.7969,2.7969,0,0,2.7782,2.776,2.7798,2.7805,2.7795,2.7819,2.7824,2.7884,2.7883,2.7899,2.7904,2.7917,2.7934,2.7935,2.7969,2.7969,0,0,0,2.7768,2.7757,2.7782,2.7802,2.7816,2.7821,2.7826,2.788,2.789,2.7904,2.7918,2.7934,2.7935,2.7969,2.7969,2.7944,0,0,0,2.7766,2.7748,2.778,2.7766,2.7814,2.7849,2.7821,2.7886,2.7894,2.7917,2.7934,2.7936,2.7969,2.7969,2.7945,2.7936,0,0,0,2.7749,2.7746,2.7754,2.7765,2.7795,2.7849,2.7863,2.7888,2.7902,2.7934,2.7936,2.7969,2.7969,2.7946,2.7937,2.7939,0,0,0,2.7725,2.773,2.7754,2.7765,2.7794,2.7834,2.7862,2.7892,2.7917,2.7935,2.7969,2.7969,2.7946,2.7938,2.794,2.7937,2.7933,0,0,2.7719,2.7728,2.7737,2.776,2.779,2.7825,2.7851,2.7893,2.7916,2.7949,2.795,2.7945,2.7938,2.7939,2.7923,2.792,0,0,0,2.7727,2.7733,2.7746,2.7769,2.7804,2.7832,2.7874,2.789,2.792,2.7929,2.7947,2.7943,2.7945,2.7944,2.7942,2.7945,2.7968,2.7968,2.7968,2.7685,2.7716,2.7733,2.7772,2.7794,2.7839,2.7859,2.7888,2.7911,2.7914,2.7924,2.7911,2.7909,2.7908,2.7911,2.7925,2.7925,2.7925,2.7925,2.7679,2.7693,2.7726,2.7753,2.7785,2.7808,2.7851,2.7867,2.7892,2.7905,2.7909,2.792,2.7904,2.7908,2.7924,2.7924,2.7924,2.7924,2.7924,2.7655,2.7667,2.7688,2.7727,2.7752,2.7792,2.7816,2.7844,2.787,2.7873,2.7887,2.7888,2.7892,2.7878,2.7878,2.7878,2.7878,2.7878,2.7878,2.7622,2.7646,2.7664,2.7702,2.7722,2.7751,2.7797,2.7816,2.7845,2.7863,2.7863,2.7886,2.7897,2.7899,2.7877,2.7877,2.7877,2.7878,2.7878,2.7604,2.7613,2.764,2.766,2.7708,2.7732,2.7768,2.7806,2.7826,2.7837,2.7859,2.7863,2.7874,2.7876,2.7878,2.7853,2.7853,2.7853,2.7853,2.7583,2.7593,2.7628,2.7658,2.769,2.7727,2.7755,2.7791,2.7828,2.7843,2.7851,2.7856,2.7857,2.7867,2.787,2.7872,2.7845,2.7845,2.7845,2.7574,2.7588,2.7608,2.7647,2.7688,2.7721,2.7749,2.7781,2.7826,2.7846,2.7855,2.7855,2.7864,2.7865,2.7884,2.7887,2.7891,0,0]}]]